Regional Weather Roundup
Issued by NWS State College, PA

Home | Current Version | Previous Version | Text Only | Print | Product List | Glossary Off
Versions: 1 2 3 4 5 6 7 8 9 10 11 12 13 14 15 16 17 18 19 20 21 22 23 24 25 26 27 28 29 30 31 32 33 34 35 36 37 38 39 40 41 42 43 44 45 46 47 48 49 50

000
ASUS41 KCTP 041103
RWRCTP

REGIONAL WEATHER ROUNDUP
NATIONAL WEATHER SERVICE STATE COLLEGE PA
600 AM EST SUN DEC 04 2016

Note: "fair" indicates few or no clouds below 12,000 feet with no
significant weather and/or obstructions to visibility.

* = STATION THAT DOES NOT REPORT PRECIPITATION /E.G. RAIN...SNOW...ETC/
    THUNDER OR FOG.

PAZ002>004-007>009-013>016-020>023-029>032-041200-
WESTERN PENNSYLVANIA

CITY           SKY/WX    TMP DP  RH WIND       PRES   REMARKS
ERIE           CLOUDY    36  32  85 S5        30.23F
MEADVILLE      CLOUDY    33  29  85 CALM      30.21F
FRANKLIN*        N/A     32  27  80 CALM      30.23S
NEW CASTLE     FAIR      31  27  85 CALM      30.25F
BEAVER COUNTY  NOT AVBL
BUTLER*        CLOUDY    32  27  80 CALM      30.26S
PITTSBURGH INT CLOUDY    34  28  79 S3        30.24F
PITTSBURGH     CLOUDY    33  24  69 S6        30.24F
INDIANA*       CLOUDY    32  28  86 SW3       30.26F
LATROBE        CLOUDY    32  28  86 SW5       30.26F
WASHINGTON CO* CLOUDY    30  25  80 CALM      30.24F
$$

PAZ004>006-010>012-017>019-024>028-033>037-041-042-045-046-049>053-041200-
CENTRAL PENNSYLVANIA

CITY           SKY/WX    TMP DP  RH WIND       PRES   REMARKS
BRADFORD       CLOUDY    32  31  96 CALM      30.17F
DUBOIS         CLOUDY    33  29  85 NW3       30.19F
CLEARFIELD     CLOUDY    34  32  92 SW3       30.21S
JOHNSTOWN      CLOUDY    30  27  88 W6        30.18F
ALTOONA        CLOUDY    34  29  82 W8        30.22R
STATE COLLEGE  CLOUDY    36  30  80 NW5       30.21S
WILLIAMSPORT   CLOUDY    41  24  51 NW10      30.23R
SELINSGROVE    CLOUDY    37  36  96 CALM      30.24R
FT INDIANTOWN  CLOUDY    41  28  60 VRB1      30.22S
CAPITAL CITY   CLOUDY    43  29  57 NW7       30.24R
HARRISBURG     CLOUDY    41  31  67 NW5       30.23R
YORK           CLOUDY    38  31  76 W5        30.24R
$$

PAZ038>040-043-044-047-048-054-055-060>062-067>071-041200-
EASTERN PENNSYLVANIA

CITY           SKY/WX    TMP DP  RH WIND       PRES   REMARKS
SCRANTON       CLOUDY    36  27  69 NW6       30.20R
MOUNT POCONO   CLOUDY    31  24  75 NW9       30.14S
ALLENTOWN      CLOUDY    40  25  55 N5        30.22S
QUAKERTOWN*    CLOUDY    39  25  56 N5        30.22R
READING        CLOUDY    41  24  51 NW8       30.22R
LANCASTER      CLOUDY    41  32  70 VRB5      30.23S
COATESVILLE    CLOUDY    39  28  65 N6        30.23R
POTTSTOWN      CLOUDY    40  25  55 N6        30.24R
BLUE BELL      CLOUDY    37  28  70 CALM      30.22R
DOYLESTOWN     CLOUDY    41  25  53 NW12G20   30.21S
WILLOW GROVE   NOT AVBL
NORTH PHILA    CLOUDY    42  25  50 CALM      30.24S
PHILADELPHIA   CLOUDY    43  25  49 N5        30.24R
$$




USA.gov is the U.S. government's official web portal to all federal, state and local government web resources and services.